Flint, MI

10:02 AM EST on February 06, 2016 (GMT -0500)
Bishop International

Weather History for KFNT - February, 2014

Change the Weather History Date:

Thursday, February 6, 2014

  Actual Average Record
Temperature  
Mean Temperature 9 °F 23 °F  
Max Temperature 20 °F 31 °F 56 °F (1938)
Min Temperature -3 °F 16 °F -5 °F (2007)
Degree Days  
Heating Degree Days 56 42  
Month to date heating degree days 312 252  
Since 1 July heating degree days 4465 4216  
Cooling Degree Days 0 0  
Month to date cooling degree days 0 0  
Year to date cooling degree days 0 0  
Moisture  
Dew Point 5 °F    
Average Humidity 75    
Maximum Humidity 87    
Minimum Humidity 63    
Precipitation  
Precipitation 0.05 in 0.05 in 0.66 in (2008)
Month to date precipitation 0.61 0.28  
Year to date precipitation 3.14 1.91  
Snow  
Snow 1.60 in 0.40 in 12.40 in (2008)
Month to date snowfall 10.9 2.4  
Since 1 July snowfall 62.3 30.2  
Snow Depth 12.00 in    
Sea Level Pressure  
Sea Level Pressure 30.28 in    
Wind  
Wind Speed 9 mph (WSW)    
Max Wind Speed 23 mph    
Max Gust Speed 28 mph    
Visibility 6 miles    
Events Snow    
T = Trace of Precipitation, MM = Missing Value Source: NWS Daily Summary

Daily Weather History Graph

Daily Weather History Graph

Search for Another Location

Airport or City:

Trip Planner

Search our weather history database for the weather conditions in past years. The results will help you decide how hot, cold, wet, or windy it might be!

Date:

Astronomy

Feb. 06, 2014 Rise Set
Actual Time 7:44 AM EST 5:54 PM EST
Civil Twilight 7:14 AM EST 6:24 PM EST
Nautical Twilight 6:40 AM EST 6:57 PM EST
Astronomical Twilight 6:07 AM EST 7:30 PM EST
Moon 11:25 AM EST 12:58 AM EST
Length of Visible Light 11h 09m
Length of Day
10h 10m
Waxing Crescent, 49% of the Moon is Illuminated
Feb 6
Waxing Crescent
Feb 6
First Quarter
Feb 14
Full
Feb 22
Last Quarter
Mar 1
New

Hourly Weather History & Observations

Time (EST) Temp. Windchill Dew Point Humidity Pressure Visibility Wind Dir Wind Speed Gust Speed Precip Events Conditions
12:53 AM 1.9 °F -5.6 °F -2.9 °F 80% 30.38 in 10.0 mi West 3.5 mph - N/A   Mostly Cloudy
1:53 AM -2.9 °F -13.3 °F -6.0 °F 87% 30.38 in 10.0 mi West 4.6 mph - N/A   Clear
2:53 AM 5.0 °F -4.1 °F -0.9 °F 76% 30.38 in 10.0 mi West 4.6 mph - N/A   Overcast
3:10 AM 5.0 °F -2.1 °F -0.4 °F 78% 30.32 in 10.0 mi West 3.5 mph - N/A   Overcast
3:53 AM 6.1 °F -4.3 °F 1.0 °F 80% 30.37 in 10.0 mi SW 5.8 mph - N/A   Overcast
4:53 AM 8.1 °F -0.5 °F 1.9 °F 76% 30.37 in 10.0 mi SSW 4.6 mph - N/A   Overcast
5:53 AM 9.0 °F 2.4 °F 3.0 °F 77% 30.37 in 10.0 mi SSW 3.5 mph - N/A   Overcast
6:53 AM 10.0 °F -0.9 °F 3.0 °F 73% 30.36 in 10.0 mi WSW 6.9 mph - N/A   Overcast
7:53 AM 8.1 °F -0.5 °F 1.9 °F 76% 30.36 in 8.0 mi SSW 4.6 mph - 0.00 in   Overcast
8:04 AM 8.6 °F 0.1 °F 3.2 °F 79% 30.30 in 8.0 mi SSW 4.6 mph - N/A   Overcast
8:44 AM 8.6 °F 0.1 °F 3.2 °F 79% 30.30 in 4.0 mi SSW 4.6 mph - N/A   Haze
8:53 AM 9.0 °F 0.6 °F 3.9 °F 80% 30.36 in 2.0 mi SSW 4.6 mph - 0.00 in Snow Light Snow
9:53 AM 12.9 °F 2.6 °F 7.0 °F 77% 30.35 in 2.0 mi SW 6.9 mph - 0.00 in Snow Light Snow
10:00 AM 12.2 °F -0.2 °F 6.8 °F 79% 30.29 in 4.0 mi SW 9.2 mph - 0.00 in Snow Light Snow
10:53 AM 15.1 °F 3.3 °F 9.0 °F 77% 30.35 in 7.0 mi SW 9.2 mph - 0.00 in   Overcast
11:53 AM 18.0 °F 6.9 °F 10.0 °F 71% 30.33 in 7.0 mi SW 9.2 mph - N/A   Overcast
12:53 PM 19.0 °F 7.5 °F 10.9 °F 71% 30.30 in 4.0 mi SW 10.4 mph - 0.00 in Snow Light Snow
1:53 PM 19.9 °F 7.9 °F 10.9 °F 68% 30.27 in 7.0 mi WSW 11.5 mph 21.9 mph 0.00 in   Overcast
2:04 PM 19.4 °F 5.5 °F 10.4 °F 68% 30.21 in 6.0 mi SW 15.0 mph 21.9 mph 0.00 in Snow Light Snow
2:21 PM 19.4 °F 5.5 °F 10.4 °F 68% 30.20 in 2.0 mi WSW 15.0 mph 21.9 mph 0.00 in Snow Light Snow
2:41 PM 19.4 °F 6.6 °F 12.2 °F 74% 30.20 in 1.8 mi WSW 12.7 mph 21.9 mph 0.00 in Snow Light Snow
2:53 PM 19.9 °F 4.8 °F 12.0 °F 71% 30.25 in 1.5 mi WSW 18.4 mph 21.9 mph 0.00 in Snow Light Snow
3:53 PM 19.9 °F 9.3 °F 10.9 °F 68% 30.25 in 2.5 mi West 9.2 mph 18.4 mph 0.00 in Snow Light Snow
3:56 PM 19.4 °F 8.6 °F 10.4 °F 68% 30.20 in 4.0 mi West 9.2 mph - 0.00 in Snow Light Snow
4:07 PM 17.6 °F 1.3 °F 10.4 °F 73% 30.20 in 1.0 mi West 19.6 mph 24.2 mph 0.00 in Snow Light Snow
4:20 PM 17.6 °F 3.2 °F 12.2 °F 79% 30.20 in 0.8 mi West 15.0 mph - 0.00 in Snow Light Snow
4:25 PM 17.6 °F 3.7 °F 12.2 °F 79% 30.20 in 1.0 mi West 13.8 mph - 0.00 in Snow Light Snow
4:36 PM 15.8 °F -0.6 °F 10.4 °F 79% 30.20 in 0.5 mi West 18.4 mph 24.2 mph 0.00 in Snow Snow
4:53 PM 16.0 °F 0.6 °F 10.0 °F 77% 30.25 in 1.8 mi West 16.1 mph - 0.00 in Snow Light Snow
5:01 PM 15.8 °F 0.3 °F 8.6 °F 73% 30.20 in 2.5 mi West 16.1 mph - 0.00 in Snow Light Snow
5:10 PM 15.8 °F -0.2 °F 8.6 °F 73% 30.20 in 4.0 mi West 17.3 mph 21.9 mph 0.00 in Snow Light Snow
5:30 PM 14.0 °F -2.5 °F 6.8 °F 73% 30.21 in 4.0 mi West 17.3 mph - 0.00 in   Haze
5:45 PM 14.0 °F -2.5 °F 6.8 °F 73% 30.21 in 1.8 mi West 17.3 mph - 0.00 in Snow Light Snow
5:53 PM 12.9 °F -2.8 °F 5.0 °F 71% 30.27 in 2.5 mi West 15.0 mph - 0.00 in Snow Light Snow
6:01 PM 12.2 °F -3.7 °F 3.2 °F 67% 30.21 in 5.0 mi West 15.0 mph - 0.00 in   Haze
6:53 PM 10.9 °F -4.7 °F 1.0 °F 64% 30.28 in 10.0 mi West 13.8 mph - 0.00 in   Mostly Cloudy
7:21 PM 10.4 °F -8.6 °F 1.4 °F 67% 30.23 in 7.0 mi West 20.7 mph 27.6 mph N/A   Overcast
7:44 PM 10.4 °F -7.7 °F -0.4 °F 62% 30.23 in 9.0 mi WSW 18.4 mph 24.2 mph N/A   Mostly Cloudy
7:53 PM 10.9 °F -3.4 °F -0.0 °F 61% 30.29 in 10.0 mi WSW 11.5 mph 24.2 mph N/A   Mostly Cloudy
8:53 PM 8.1 °F -4.3 °F -2.0 °F 64% 30.28 in 10.0 mi SW 8.1 mph - N/A   Partly Cloudy
9:22 PM 10.4 °F -3.3 °F -0.4 °F 62% 30.23 in 10.0 mi WSW 10.4 mph - N/A   Mostly Cloudy
9:53 PM 10.0 °F -5.2 °F 1.0 °F 67% 30.29 in 10.0 mi WSW 12.7 mph - N/A   Overcast
10:53 PM 9.0 °F -5.9 °F 1.0 °F 70% 30.29 in 10.0 mi SW 11.5 mph - N/A   Overcast
11:53 PM 9.0 °F -7.9 °F 1.0 °F 70% 30.30 in 8.0 mi SW 15.0 mph - 0.00 in   Overcast